TimeCDT,TemperatureF,Dew PointF,Humidity,Sea Level PressureIn,VisibilityMPH,Wind Direction,Wind SpeedMPH,Gust SpeedMPH,PrecipitationIn,Events,Conditions,WindDirDegrees,DateUTC
12:53 AM,66.9,61.0,81,30.10,10.0,ESE,4.6,-,N/A,,Clear,110,2012-10-05 05:53:00
1:53 AM,66.9,62.1,84,30.10,10.0,ESE,5.8,-,N/A,,Clear,120,2012-10-05 06:53:00
3:53 AM,68.0,63.0,84,30.09,10.0,SE,3.5,-,N/A,,Partly Cloudy,140,2012-10-05 08:53:00
4:53 AM,69.1,63.0,81,30.09,10.0,South,4.6,-,N/A,,Overcast,180,2012-10-05 09:53:00
5:53 AM,68.0,63.0,84,30.09,10.0,SSW,3.5,-,N/A,,Mostly Cloudy,200,2012-10-05 10:53:00
6:53 AM,66.9,63.0,87,30.09,10.0,South,3.5,-,N/A,,Mostly Cloudy,190,2012-10-05 11:53:00
7:53 AM,66.9,63.0,87,30.09,9.0,South,10.4,-,N/A,,Partly Cloudy,190,2012-10-05 12:53:00
8:53 AM,71.1,64.0,78,30.09,10.0,SSW,8.1,-,N/A,,Partly Cloudy,200,2012-10-05 13:53:00
9:53 AM,75.0,66.9,76,30.09,10.0,SSW,9.2,-,N/A,,Clear,210,2012-10-05 14:53:00
10:53 AM,79.0,68.0,69,30.07,10.0,South,11.5,-,N/A,,Clear,190,2012-10-05 15:53:00
11:53 AM,82.0,66.0,58,30.06,10.0,SSW,15.0,-,N/A,,Partly Cloudy,200,2012-10-05 16:53:00
12:53 PM,84.0,64.0,51,30.04,10.0,SSW,15.0,21.9,N/A,,Partly Cloudy,200,2012-10-05 17:53:00
1:53 PM,84.0,66.0,55,30.02,10.0,SW,11.5,21.9,N/A,,Mostly Cloudy,220,2012-10-05 18:53:00
2:53 PM,84.0,66.9,56,29.99,10.0,SW,13.8,19.6,N/A,,Mostly Cloudy,230,2012-10-05 19:53:00
3:53 PM,84.9,68.0,57,29.97,10.0,SW,12.7,-,N/A,,Scattered Clouds,230,2012-10-05 20:53:00
4:53 PM,84.9,66.0,53,29.95,10.0,WSW,10.4,18.4,N/A,,Partly Cloudy,240,2012-10-05 21:53:00
5:53 PM,84.0,66.0,55,29.94,10.0,SSW,9.2,-,N/A,,Scattered Clouds,200,2012-10-05 22:53:00
6:53 PM,78.1,73.0,84,29.96,8.0,West,11.5,-,0.02,Rain,Light Rain,280,2012-10-05 23:53:00
7:53 PM,73.0,66.9,81,29.99,9.0,NNW,8.1,-,0.00,,Mostly Cloudy,330,2012-10-06 00:53:00
8:53 PM,69.1,64.9,87,30.02,10.0,NNW,8.1,-,N/A,,Mostly Cloudy,340,2012-10-06 01:53:00
9:53 PM,66.9,62.1,84,30.05,10.0,North,5.8,-,N/A,,Overcast,350,2012-10-06 02:53:00
10:33 PM,66.2,62.6,88,30.07,10.0,North,8.1,-,N/A,,Overcast,360,2012-10-06 03:33:00
10:53 PM,66.0,60.1,81,30.06,10.0,NNE,10.4,-,N/A,,Overcast,20,2012-10-06 03:53:00
11:53 PM,61.0,55.9,83,30.08,10.0,NNE,11.5,-,N/A,,Overcast,30,2012-10-06 04:53:00